User: anonymous   Login
Location: Bangkok
(13.7500°N, 100.5170°E)
Time: 08:11:07
(UTC+07:00)
Language:

ERBS - Orbit

View from above orbital plane
View from above orbital plane
View from above satellite
View from above satellite

Ground track
Ground track

The orbit data is extracted from the following two-line orbital elements,

1 15354U 84108B   17350.74654882 +.00002355 +00000-0 +57636-4 0  9995
2 15354 057.0086 071.6614 0016380 092.8371 267.4560 15.45000472826137
Epoch (UTC): 16 December 2017 17:55:01
Eccentricity: 0.0016380
inclination: 57.0086°
perigee height: 420 km
apogee height: 442 km
right ascension of ascending node: 71.6614°
argument of perigee: 92.8371°
revolutions per day: 15.45000472
mean anomaly at epoch: 267.4560°
orbit number at epoch: 82613

The dashed part of the orbit path shows where the satellite is in the earth's shadow,  

DLR